Temp
20 20 20 20 20 20 20 20 21 21 21 21 20 20 20 20 20 20 19 19 19 19 19 19 19 19 20 20 20 20 20 20 20 20 20 20 20 20 20 20 20 20
20 20 20 20 20 19 19 20 20 21 21 20 20 20 21 21 20 20 19 19 19 19 19 20 19 19 20 20 20 20 20 20 20 20 20 20 20 20 20 20 20 20
20 20 20 20 20 20 19 19 20 20 20 20 20 20 20 21 20 20 20 19 19 19 19 20 20 20 20 20 20 20 20 20 20 20 20 20 20 20 20 20 20 20
20 20 20 20 20 20 19 19 19 20 20 19 19 20 20 20 20 19 19 19 19 20 20 20 20 20 20 20 20 20 20 20 20 20 20 20 20 20 20 20 20 20
20 20 20 20 20 21 20 19 19 19 19 19 19 19 19 19 19 19 19 19 19 20 20 20 20 20 20 20 20 20 20 20 20 20 20 20 20 20 20 20 20 20
19 19 20 20 20 20 20 20 19 19 19 19 19 19 19 19 19 19 19 19 20 20 20 20 20 20 20 20 20 20 20 19 20 20 20 20 20 19 19 20 20 20
19 20 20 20 20 19 19 20 20 19 19 19 19 19 19 19 19 19 19 20 20 20 20 20 20 20 20 20 20 20 20 19 20 20 20 20 20 19 19 20 20 20
20 20 20 21 20 19 17 18 20 20 20 19 19 19 19 19 19 19 20 20 20 20 20 21 21 20 20 20 20 20 20 20 20 20 20 20 20 19 19 20 20 20
20 20 20 20 21 20 19 19 20 20 20 20 19 18 19 19 19 19 20 20 19 19 20 21 21 21 21 20 20 20 20 20 20 20 20 20 20 19 20 20 20 20
20 20 20 20 20 21 21 20 20 20 20 20 19 18 18 19 20 20 19 20 20 19 20 21 21 21 21 21 21 20 20 20 20 20 20 20 20 20 20 20 20 19
21 20 20 20 21 21 21 20 20 19 19 19 19 19 19 19 20 20 19 19 20 20 21 21 21 21 21 21 21 21 21 21 20 20 20 20 20 20 20 20 20 20
21 21 20 20 20 21 21 21 20 19 19 20 20 19 19 19 20 20 19 19 20 20 21 21 21 21 21 21 21 21 21 21 20 20 20 20 20 20 19 20 20 20
20 20 20 20 20 20 20 20 20 20 19 20 20 19 19 19 19 19 19 19 19 19 20 21 21 21 21 21 21 21 21 21 21 20 20 20 20 20 20 20 20 20
18 19 18 18 20 20 19 20 20 20 20 20 20 20 19 19 19 19 19 18 19 19 19 20 21 21 21 21 21 21 21 20 20 20 20 20 20 20 20 20 20 20
17 17 16 17 19 20 20 20 20 20 20 20 20 20 20 19 19 19 19 19 19 19 19 19 20 21 21 21 21 21 21 20 20 20 20 20 20 20 20 20 20 20
15 16 15 15 18 20 20 20 19 20 19 19 20 19 19 19 19 18 19 19 19 19 19 19 19 20 20 20 20 21 21 20 20 20 20 21 21 21 20 20 20 20
14 15 15 14 15 18 19 20 19 19 19 19 19 19 19 19 19 19 19 19 19 19 19 19 19 19 20 20 20 20 20 20 20 20 20 20 21 21 21 20 20 20
14 15 15 15 15 17 18 19 19 18 18 18 19 19 19 19 19 19 19 19 19 19 19 19 19 19 20 20 20 20 20 20 20 20 20 20 20 21 21 21 21 21
16 15 15 15 16 16 17 18 18 17 17 17 18 18 19 19 19 19 19 19 19 19 19 19 19 19 19 20 21 20 20 19 19 19 19 20 20 20 21 21 22 21
18 16 15 14 15 15 15 15 17 17 16 17 18 19 19 19 19 19 20 20 19 19 19 19 19 19 19 20 20 20 20 19 19 19 20 20 20 20 21 21 21 21
18 17 16 15 14 15 15 15 16 17 17 18 18 19 19 19 19 19 19 20 20 19 19 19 19 19 19 19 19 19 19 19 19 19 20 20 21 21 21 21 21 21
16 17 17 15 14 15 15 15 15 16 17 18 18 18 19 19 19 19 19 19 19 19 19 19 19 19 19 19 19 19 19 18 18 18 19 20 20 20 21 21 21 21
15 16 17 17 17 17 16 15 15 16 17 17 17 18 18 18 18 19 19 20 19 20 19 20 20 19 19 19 19 18 18 18 17 18 19 20 20 20 21 21 20 20
14 14 15 17 18 18 17 16 16 16 16 16 17 18 18 19 19 19 19 19 19 19 20 20 20 20 19 19 19 18 18 17 17 18 19 19 20 20 21 21 21 20
12 13 14 15 16 18 18 18 18 17 17 16 15 17 18 19 19 19 19 19 19 19 19 19 19 20 20 19 19 18 18 17 18 19 19 19 20 21 21 21 21 21
12 12 13 14 15 16 17 18 18 19 19 18 16 16 17 17 18 19 19 19 19 19 19 19 19 19 20 19 19 18 18 17 18 19 20 20 20 21 21 21 22 21
Height
737 739 740 742 744 746 748 750 752 754 756 759 762 763 765 767 770 772 774 777 781 783 785 788 789 791 794 797 799 801 803 805 807 809 810 811 812 813 814 815 816 816
733 735 736 738 740 743 745 746 748 751 753 755 758 760 762 764 766 769 771 774 778 780 782 785 786 788 791 793 796 798 800 801 803 805 806 807 808 809 811 812 813 814
729 731 733 734 736 739 741 743 744 747 750 751 754 756 759 761 763 766 769 772 775 777 779 781 782 785 787 790 793 795 796 798 800 802 803 804 805 806 807 808 809 810
725 727 729 731 733 735 738 740 741 743 746 748 750 752 755 758 760 764 767 769 772 773 775 777 779 781 784 786 789 791 793 795 796 798 800 801 802 802 803 804 805 806
721 723 725 727 729 731 734 736 737 739 741 745 747 749 751 754 758 762 764 766 768 769 771 773 775 778 781 783 786 788 790 792 793 795 796 797 798 799 800 800 801 803
716 718 721 723 725 727 729 731 733 735 737 740 743 746 749 752 755 759 762 763 764 766 768 770 772 774 777 780 782 784 786 788 790 791 793 794 795 795 796 797 798 799
712 713 716 718 720 723 725 726 728 730 733 736 739 742 746 749 753 756 759 760 761 763 764 766 768 770 773 775 778 780 782 784 786 787 789 790 791 791 792 793 794 795
708 709 712 714 715 718 722 724 723 725 730 733 734 737 741 746 749 752 754 756 757 758 760 761 763 765 768 771 773 776 778 780 782 783 784 785 786 787 788 790 791 792
705 706 708 709 710 713 717 720 720 722 726 729 731 733 736 741 745 747 749 750 752 756 758 758 758 759 763 766 769 771 773 775 777 779 780 781 782 783 784 786 787 789
702 703 705 706 707 708 711 713 716 719 722 725 728 730 732 736 740 742 744 745 748 752 754 755 754 755 757 761 764 767 769 771 773 775 776 777 778 779 781 782 784 785
698 700 702 703 704 705 707 709 713 717 719 722 725 727 730 732 735 737 740 741 743 746 749 750 752 754 754 756 759 762 764 766 769 771 772 773 774 776 777 778 779 781
694 697 698 699 700 702 703 706 709 713 716 719 721 724 726 728 730 733 735 737 739 741 744 746 749 751 752 753 755 757 759 762 764 766 768 770 771 772 773 774 775 776
691 693 695 696 697 699 701 703 706 710 712 715 718 720 721 723 726 728 730 733 736 738 741 743 745 747 749 750 752 753 755 758 760 762 764 766 767 767 769 769 770 771
688 689 693 695 694 695 698 700 703 705 707 710 713 715 716 718 721 722 724 729 733 736 738 740 742 744 744 746 748 749 751 753 756 759 760 762 763 763 764 765 765 766
686 687 692 695 692 690 693 695 698 701 703 706 708 711 713 714 716 719 722 725 728 732 735 738 740 741 740 740 743 745 746 748 751 755 756 757 759 759 760 760 760 761
687 688 691 693 690 687 688 690 693 695 698 702 704 707 710 711 712 716 720 722 725 728 732 734 737 737 734 734 737 739 741 742 745 749 752 753 754 755 755 756 756 756
689 689 690 692 690 686 685 685 688 690 692 696 699 701 704 707 709 711 714 717 720 723 726 730 732 732 729 728 730 733 736 738 740 743 747 749 749 750 750 751 752 751
688 688 689 691 689 686 684 683 684 687 690 692 694 695 698 701 704 706 708 711 714 717 721 725 727 727 725 722 724 727 731 734 737 739 742 744 745 745 746 746 747 747
685 685 687 687 686 684 684 683 682 684 687 689 690 690 692 695 698 701 704 706 709 712 715 718 721 723 721 717 717 721 725 729 733 735 737 738 739 740 740 741 741 742
683 682 681 681 681 680 682 683 683 683 685 687 686 685 687 690 693 696 698 701 703 707 711 713 716 719 719 715 713 716 720 724 728 731 732 732 733 734 735 736 736 737
684 683 680 679 679 680 681 682 684 683 681 681 680 679 681 684 688 691 694 696 699 703 706 708 710 713 715 714 712 712 716 720 723 726 727 728 728 729 729 731 732 732
685 685 683 682 682 682 681 680 681 680 677 674 674 676 678 680 683 686 690 692 695 699 701 702 704 707 709 710 710 710 714 717 720 722 723 724 724 724 724 726 728 729
687 685 684 684 682 681 679 678 678 678 675 672 672 673 675 677 679 682 685 688 690 694 696 698 700 702 704 705 706 708 711 714 717 719 719 720 720 719 719 720 723 724
688 686 685 683 681 679 678 677 676 676 675 673 672 671 671 672 675 677 681 684 687 689 691 694 696 698 699 700 702 704 707 710 713 715 715 716 716 715 714 715 717 719
688 687 686 684 682 679 677 676 675 674 673 673 674 673 671 670 672 675 677 680 683 685 688 690 692 693 695 696 697 700 702 706 709 710 710 711 711 709 709 710 712 713
688 687 685 684 683 680 677 675 674 673 672 672 673 674 673 671 671 672 674 676 678 681 683 685 687 689 691 692 694 696 698 701 704 704 704 705 705 704 703 705 707 708
Wind_Speed
37 37 36 35 34 32 31 31 29 26 26 27 25 22 22 23 24 23 23 24 26 27 28 27 25 23 23 23 23 23 23 22 23 22 22 21 21 21 20 21 20 20
40 39 37 35 32 31 33 33 30 26 25 26 24 20 19 20 22 22 22 24 25 25 26 26 24 23 24 23 23 24 23 23 23 23 23 23 22 22 21 21 21 21
40 41 38 36 33 31 32 33 31 27 24 25 24 21 17 17 20 22 22 25 26 25 25 26 25 24 24 24 24 25 24 24 24 24 24 24 24 23 23 22 22 22
38 39 37 36 34 29 27 29 32 29 24 24 24 21 18 18 20 22 23 25 26 25 26 27 26 25 25 25 25 25 24 24 25 25 24 24 24 24 24 23 23 23
35 35 35 36 33 29 25 26 31 32 27 25 23 22 21 20 20 22 23 26 27 26 26 26 26 26 25 25 25 25 25 25 25 25 24 24 24 25 25 23 23 23
32 31 33 36 34 31 27 25 27 31 31 28 25 24 24 21 20 22 24 25 25 25 24 24 25 25 26 26 25 26 26 25 25 24 24 24 25 25 25 24 23 22
30 31 32 35 36 34 32 28 25 26 29 30 25 23 24 24 23 23 24 24 23 24 24 23 24 24 25 26 26 27 27 26 25 25 25 26 25 25 25 25 23 21
30 31 32 33 33 35 36 33 27 24 26 29 28 26 26 27 26 25 25 24 24 24 25 24 25 24 24 26 26 26 27 26 26 26 27 27 26 25 26 25 24 22
31 33 34 31 30 33 35 31 28 27 27 29 31 31 30 28 28 28 28 26 25 26 27 26 26 25 25 26 27 26 26 27 27 27 27 27 27 26 25 24 24 23
32 33 34 33 31 31 30 28 30 31 29 28 31 34 34 31 30 31 31 29 27 27 28 27 26 26 25 26 27 27 27 27 28 27 27 27 27 26 26 24 23 23
32 33 33 33 32 31 30 29 32 33 30 28 30 33 34 33 32 33 31 29 28 27 27 26 25 25 25 26 26 26 26 26 27 27 27 27 26 26 26 25 23 23
28 30 32 33 32 32 30 29 32 33 30 29 30 32 33 33 35 37 33 29 29 29 26 25 26 25 25 25 25 25 25 25 26 26 27 26 26 26 26 25 25 24
23 26 30 33 32 31 30 29 30 32 31 31 31 31 33 33 33 36 34 29 27 28 27 26 26 26 25 24 24 24 24 24 25 26 26 26 27 27 26 26 26 25
23 25 29 33 31 29 30 31 32 33 33 35 35 33 33 33 32 33 33 29 24 24 26 27 27 27 26 25 25 24 23 23 25 26 27 27 27 27 27 27 26 26
21 20 26 32 31 30 32 34 34 34 34 35 35 33 31 31 32 31 31 29 25 22 23 25 28 29 27 26 26 25 24 23 24 26 28 28 28 27 28 28 27 27
23 22 26 30 28 27 31 33 34 34 32 32 34 34 32 32 34 34 33 33 31 28 26 26 29 31 30 29 29 27 25 24 25 27 29 28 28 28 28 29 29 28
21 24 27 29 29 27 27 28 31 33 33 33 34 34 32 31 33 35 36 38 38 35 32 31 31 33 34 34 32 31 29 27 27 28 29 29 28 28 28 29 30 29
16 21 24 26 28 27 26 26 27 30 32 34 36 36 34 33 33 33 34 35 34 32 31 32 34 36 38 36 34 34 34 30 27 27 29 29 29 29 29 28 28 28
11 17 19 21 23 24 24 25 26 28 30 33 35 35 33 33 34 34 33 32 31 29 30 32 34 37 40 39 36 36 39 37 30 27 28 29 30 30 30 29 28 28
6 12 15 17 18 19 21 26 27 26 30 35 33 31 31 31 32 33 33 31 31 31 31 32 34 36 38 39 38 38 42 43 37 29 29 30 30 30 30 30 29 29
10 8 13 16 17 17 19 24 27 25 26 28 27 26 29 30 30 30 31 31 32 32 30 30 33 34 35 37 38 38 41 44 40 33 30 30 29 29 30 30 30 29
17 11 9 13 18 20 19 20 25 27 25 23 23 25 27 28 29 30 30 31 32 31 30 29 30 33 35 37 39 39 40 42 41 35 31 30 28 28 29 29 30 31
18 17 14 11 13 16 16 19 24 27 25 22 22 24 26 27 28 28 28 29 29 29 30 29 28 30 34 36 37 39 40 42 40 34 31 30 29 28 28 28 30 33
17 17 16 16 15 13 13 16 21 24 24 23 22 22 22 23 24 22 22 24 26 26 28 28 27 29 33 35 35 37 41 42 37 32 30 30 30 29 29 29 31 34
17 16 16 16 17 16 14 13 15 18 19 20 23 24 21 20 21 21 22 24 25 25 27 29 29 30 32 33 33 35 40 41 34 29 30 30 28 27 27 28 30 32
17 16 16 16 16 16 17 15 13 14 14 15 19 22 22 21 22 22 22 23 24 25 26 28 29 30 31 32 31 33 38 40 34 28 27 27 26 25 24 25 28 30
Wind_Direction
220 220 218 216 216 216 211 204 202 205 208 209 206 203 204 205 205 202 197 201 206 208 209 209 204 201 203 206 208 211 213 214 216 219 219 220 221 223 226 228 230 234
222 223 221 219 216 214 212 207 202 202 206 207 203 202 205 204 202 201 198 201 207 207 208 209 204 201 203 205 209 212 215 217 218 219 220 220 221 222 226 229 230 233
223 226 225 223 220 217 214 208 200 198 202 203 200 199 204 204 199 201 201 203 209 209 209 210 206 205 207 210 212 214 217 220 219 219 220 222 222 224 226 228 230 233
222 225 227 225 224 221 215 206 198 198 199 199 197 194 197 199 196 200 203 205 209 210 209 211 210 209 212 214 216 216 217 219 220 219 220 221 223 226 228 228 229 231
219 220 224 226 226 222 215 208 204 204 203 200 198 194 192 195 197 203 207 206 209 212 211 212 212 213 214 215 216 217 217 219 221 220 220 221 223 226 228 227 227 229
218 217 222 225 226 223 217 211 207 207 207 206 203 198 196 197 198 203 210 210 211 216 217 215 214 215 216 216 216 217 218 219 220 220 220 222 224 225 226 227 226 225
221 219 223 226 226 226 223 217 206 203 209 208 200 197 200 200 197 202 211 216 216 217 218 216 214 212 214 216 216 217 217 218 219 219 220 223 224 223 224 225 225 224
225 223 225 227 225 225 226 223 211 203 207 204 200 203 204 199 199 203 209 212 212 214 217 214 210 209 211 213 214 215 216 217 217 219 220 221 222 223 224 223 224 225
225 225 225 226 223 222 222 220 213 210 208 201 200 202 200 197 202 206 206 207 207 213 219 216 208 206 209 212 214 213 214 216 217 218 220 220 221 222 224 223 223 223
226 225 224 223 223 222 219 214 211 210 207 201 199 200 200 201 208 212 211 210 208 210 217 219 213 207 206 210 214 213 213 216 218 219 221 222 221 221 223 224 222 221
227 226 225 222 222 221 218 214 211 205 201 200 199 200 203 205 208 210 210 211 210 210 213 217 218 214 208 209 213 215 215 217 218 220 222 223 223 221 222 224 222 221
231 227 225 223 222 221 219 215 210 202 199 202 201 197 199 204 206 207 207 208 211 213 213 214 217 218 215 214 214 215 217 218 219 219 220 223 223 220 220 222 222 222
237 233 230 224 219 218 217 212 208 204 202 209 211 201 198 200 200 201 204 207 209 211 212 212 214 215 214 215 215 214 216 219 221 221 220 222 224 222 220 220 220 220
234 233 235 229 217 212 213 212 213 214 212 216 217 212 207 204 199 199 205 209 209 209 211 213 216 216 213 213 215 215 214 215 219 222 221 222 224 223 221 220 218 217
235 232 237 236 223 211 211 214 216 217 218 219 218 215 212 207 204 207 213 216 212 208 209 211 214 216 211 208 212 212 209 208 213 220 221 221 222 222 221 220 218 216
236 235 238 242 237 221 213 213 212 212 214 215 214 214 213 210 208 210 216 219 217 213 213 212 213 213 209 205 207 207 204 203 208 216 222 223 221 221 221 220 219 218
233 237 235 239 243 235 224 217 211 210 212 211 211 212 212 210 211 209 209 213 217 217 216 216 217 215 211 209 210 209 206 204 205 210 218 223 222 221 220 219 220 220
229 240 240 238 240 238 231 224 215 213 215 214 210 208 206 207 210 209 206 207 212 213 210 213 218 219 216 213 212 211 208 206 205 208 214 219 222 222 221 220 221 221
225 237 246 245 244 244 244 240 230 221 221 221 214 206 205 207 209 211 210 206 206 209 209 212 220 225 223 218 214 213 211 209 208 209 212 215 217 220 222 222 221 221
265 249 259 260 251 245 250 253 246 230 223 224 217 206 204 206 206 210 212 209 208 211 212 215 221 227 228 222 216 215 214 213 211 212 215 216 216 218 220 221 220 217
326 280 266 271 263 247 242 247 247 240 230 224 216 208 205 205 205 207 209 209 211 212 213 215 220 226 230 226 220 216 216 215 213 214 219 221 221 221 222 225 224 220
334 324 282 259 251 244 242 243 243 242 238 230 221 216 212 207 206 208 210 210 211 212 214 217 220 224 228 228 224 219 217 216 214 216 222 225 225 224 225 228 229 228
327 327 317 289 259 245 244 248 249 247 243 236 228 222 217 213 210 209 210 211 211 213 216 219 222 224 226 229 227 223 220 217 215 217 223 227 228 227 228 229 229 230
321 320 317 311 300 279 257 248 248 249 249 246 240 233 223 218 216 214 213 214 216 217 218 221 224 226 229 231 230 226 222 218 216 218 222 227 229 228 230 232 232 233
316 314 311 308 304 298 287 267 249 246 247 247 246 245 238 228 221 219 218 218 220 222 222 225 228 230 233 235 234 230 224 218 216 218 221 224 228 229 229 232 234 235
309 308 306 303 300 298 295 288 272 257 249 244 244 244 242 236 228 222 220 221 222 224 226 227 229 232 236 238 236 231 224 218 214 218 221 222 226 229 229 230 233 235